User: anonymous   Login
Location: Unspecified
(0.0000°N, 0.0000°E)
Time: 03:00:19
(UTC+00:00)
Language:

USA 274 DEB - Orbit

View from above orbital plane
View from above orbital plane
View from above satellite
View from above satellite

Ground track
Ground track

The orbit data is extracted from the following two-line orbital elements,

1 42065U 17011B   17323.77212806 0.00000000  00000-0  00000-0 0    09
2 42065  63.4502 201.3322 0102000 179.1986 180.8013 13.40739758    04
Epoch (UTC): 19 November 2017 18:31:51
Eccentricity: 0.0102000
inclination: 63.4502°
perigee height: 1030 km
apogee height: 1183 km
right ascension of ascending node: 201.3322°
argument of perigee: 179.1986°
revolutions per day: 13.40739758
mean anomaly at epoch: 180.8013°
orbit number at epoch: 0

The dashed part of the orbit path shows where the satellite is in the earth's shadow,  

DLR